Weather Roundup
Issued by NWS Springfield, MO

Home | Current Version | Previous Version | Text Only | Print | Product List | Glossary On
Versions: 1 2 3 4 5 6 7 8 9 10 11 12 13 14 15 16 17 18 19 20 21 22 23 24 25 26 27 28 29 30 31 32 33 34 35 36 37 38 39 40 41 42 43 44 45 46 47 48 49 50
000
NZUS99 KSGF 280659
HRRSGF

HOURLY WEATHER
NATIONAL WEATHER SERVICE SPRINGFIELD MO
200 AM CDT TUE APR 28 2015

......SGF CWA......

CITY           SKY/WX    TMP DP  RH WIND       PRES   REMARKS
SPRINGFIELD    PTCLDY    50  36  58 NE7       30.07S
JOPLIN         CLOUDY    51  38  60 NE5       30.07S
WEST PLAINS    CLEAR     44  35  70 NE6       30.07R
ROLLA          CLEAR     44  36  73 NE6       30.08S
OSAGE BEACH    PTCLDY    46  36  66 NE3       30.10S

......SURROUNDING SGF CWA......

CITY           SKY/WX    TMP DP  RH WIND       PRES   REMARKS
CHANUTE        CLOUDY    52  39  61 NE6       30.10R
PARSONS        CLOUDY    54  40  59 NE5       30.09S
COFFEYVILLE    CLOUDY    54  41  61 NE7       30.07S
EMPORIA        CLOUDY    48  39  71 NW3       30.12S
SILOAM SPRINGS CLOUDY    50  43  76 W5        30.06R
HARRISON AR    CLOUDY    51  37  58 NE5       30.05S
NEAR YELLVILLE MOCLDY    52  37  58 N6        30.02S

......KANSAS AND MISSOURI......

CITY           SKY/WX    TMP DP  RH WIND       PRES   REMARKS
KANSAS CTY INT PTCLDY    49  36  61 NE5       30.14S
DOWNTOWN KC    MOCLDY    53  36  52 CALM      30.13S
COLUMBIA       CLEAR     47  37  68 NE6       30.11S
SEDALIA        CLEAR     50  38  63 NE5       30.13S
ST JOSEPH      PTCLDY    45  37  73 CALM      30.15S
ST LOUIS       PTCLDY    50  38  63 E5        30.12R
SPIRIT OF STL  CLEAR     42  39  89 CALM      30.12R
KIRKSVILLE     CLEAR     42  40  92 CALM      30.15R
WICHITA        CLOUDY    52  38  58 N7        30.12S
TOPEKA         MOCLDY    46  40  79 CALM      30.14S
OLATHE         CLOUDY    51  37  58 NE6       30.12S

......TENNESSEE......

CITY           SKY/WX    TMP DP  RH WIND       PRES   REMARKS
MEMPHIS        PTCLDY    54  40  59 NE9       29.95F
NASHVILLE      PTCLDY    49  40  71 N9        29.98S

......ARKANSAS.......

CITY           SKY/WX    TMP DP  RH WIND       PRES   REMARKS
FAYETTEVILLE   CLOUDY    50  50 100 CALM      30.04R
FT SMITH       LGT RAIN  55  51  86 SW3       30.02S
LITTLE ROCK    CLOUDY    57  41  55 NE7       29.97R

......OKLAHOMA.......

CITY           SKY/WX    TMP DP  RH WIND       PRES   REMARKS
TULSA          LGT RAIN  52  50  93 N6        30.06S
PONCA CITY     CLOUDY    50  48  93 NW6       30.10S
MCALESTER      LGT RAIN  53  50  89 NE7       30.01F
OKLAHOMA CITY  CLOUDY    50  46  86 N13       30.05S

......IOWA............

CITY           SKY/WX    TMP DP  RH WIND       PRES   REMARKS
DES MOINES     PTCLDY    49  37  63 N3        30.16S
QUAD CITIES    CLEAR     41  36  82 CALM      30.12S

......ILLINOIS........

CITY           SKY/WX    TMP DP  RH WIND       PRES   REMARKS
QUINCY         CLEAR     49  35  58 CALM      30.12R
CHICAGO        CLEAR     39  33  79 CALM      30.13R



USA.gov is the U.S. government's official web portal to all federal, state and local government web resources and services.